map of WMH home
Great Circle Mapper logo
WMH - Airport
Location
City:  Mountain Home, Arkansas, United States
Name:Baxter County Airport
ICAO / IATA:KBPK / WMH
FAA:BPK

Details
Type:Airport (Airfield)
Use:Public/Civil
Latitude:3622'08"N (36.368942)
Longitude:9228'14"W (-92.470527)
Datum:WGS 1984
Elevation:928 ft (283 m)
Runways:1
Longest:5001 × 75 ft (1524 × 23 m), paved

Time
Time Zone:UTC-6 (DST-5)
Local Time:

Weather
METAR:KBPK 010253Z AUTO 34003KT 10SM CLR 03/M07 A3039 RMK AO2 SLP293 T00281067 51017
TAF:KBPK 312328Z 0100/0124 35007KT P6SM SKC
FM010300 36004KT P6SM SKC
FM011500 07006KT P6SM SKC

Related Locations
Nearby:
Farthest:MGV: 10879 mi / 17508 km
Margaret River, WA, AU

Find:

   beyond  
but within

Other Information
Maps:
NOTAMs:
Links:
Sources:

  
flag of United States
flag of Arkansas
  

Sectional Chart

Flight Planning
at skyvector.com

Satellite Image

Google Maps Satellite View

 

Copyright © 2004-2014 Karl L. Swartz. All rights reserved.
The Great Circle Mapper name and logo are trademarks of the Great Circle Mapper.
All other trademarks mentioned herein belong to their respective owners.
Please see credits for attibutions and further copyright information.

  Follow gcmap on Facebook Follow gcmap on Twitter

hCard Microformat

Geo Microformat